La Porte, IN

7:06 AM CST on February 24, 2017 (GMT -0600)
La Porte Municipal

Weather History for KPPO - December, 2012

Change the Weather History Date:

Thursday, December 6, 2012

  Actual Average (KSBN) Record (KSBN)
Temperature  
Mean Temperature 35 °F -  
Max Temperature 41 °F 39 °F 65 °F (1998)
Min Temperature 29 °F 26 °F 1 °F (1977)
Degree Days  
Heating Degree Days 30    
Moisture  
Dew Point 32 °F    
Average Humidity 81    
Maximum Humidity 89    
Minimum Humidity 71    
Precipitation  
Precipitation 0.00 in - - ()
Sea Level Pressure  
Sea Level Pressure 30.01 in    
Wind  
Wind Speed 6 mph (SSE)    
Max Wind Speed 9 mph    
Max Gust Speed 16 mph    
Visibility 10 miles    
Events      
Averages and records for this station are not official NWS values.
T = Trace of Precipitation, MM = Missing Value Source: NWS Daily Summary

Daily Weather History Graph

Daily Weather History Graph

Search for Another Location

Airport or City:

Trip Planner

Search our weather history database for the weather conditions in past years. The results will help you decide how hot, cold, wet, or windy it might be!

Date:

Astronomy

Dec. 06, 2012 Rise Set
Actual Time 6:59 AM CST 4:16 PM CST
Civil Twilight 6:28 AM CST 4:47 PM CST
Nautical Twilight 5:53 AM CST 5:22 PM CST
Astronomical Twilight 5:20 AM CST 5:56 PM CST
Moon No Moon Rise 11:47 AM CST (12/6)
Length of Visible Light 10h 19m
Length of Day
9h 17m
Waning Gibbous, 49% of the Moon is Illuminated
Dec 6
Waning Gibbous
Dec 13
New
Dec 19
First Quarter
Dec 28
Full
Jan 4
Last Quarter

Hourly Weather History & Observations

Time (CST) Temp. Windchill Dew Point Humidity Pressure Visibility Wind Dir Wind Speed Gust Speed Precip Events Conditions
7:35 AM 29.3 °F 23.2 °F 25.7 °F 86% 30.16 in 10.0 mi SSE 5.8 mph - N/A   Clear
7:55 AM 29.8 °F 23.9 °F 25.7 °F 85% 30.16 in 10.0 mi SSE 5.8 mph - N/A   Clear
8:15 AM 30.2 °F 22.6 °F 26.2 °F 85% 30.16 in 10.0 mi SSE 8.1 mph - N/A   Scattered Clouds
8:35 AM 30.6 °F 23.8 °F 26.4 °F 85% 30.16 in 10.0 mi SSE 6.9 mph - N/A   Clear
9:15 AM 31.6 °F 23.7 °F 26.6 °F 82% 30.15 in 10.0 mi SSE 9.2 mph - N/A   Clear
9:35 AM 32.0 °F 24.2 °F 27.1 °F 82% 30.14 in 10.0 mi South 9.2 mph - N/A   Clear
9:55 AM 32.2 °F 25.8 °F 27.5 °F 83% 30.13 in 10.0 mi SSE 6.9 mph 16.1 mph N/A   Clear
10:15 AM 32.9 °F 25.9 °F 27.7 °F 81% 30.12 in 10.0 mi South 8.1 mph - N/A   Clear
10:35 AM 33.6 °F 27.5 °F 28.4 °F 81% 30.11 in 10.0 mi South 6.9 mph - N/A   Clear
10:55 AM 34.5 °F 27.3 °F 28.6 °F 79% 30.10 in 10.0 mi SSE 9.2 mph - N/A   Clear
11:15 AM 35.8 °F 30.1 °F 29.7 °F 78% 30.09 in 10.0 mi South 6.9 mph - N/A   Clear
11:35 AM 37.0 °F 31.0 °F 30.0 °F 76% 30.08 in 10.0 mi South 8.1 mph - N/A   Clear
11:55 AM 37.6 °F 33.1 °F 30.6 °F 76% 30.06 in 10.0 mi SSE 5.8 mph - N/A   Clear
12:15 PM 38.3 °F 33.2 °F 31.1 °F 75% 30.05 in 10.0 mi SE 6.9 mph - N/A   Clear
12:35 PM 38.8 °F 33.2 °F 31.3 °F 74% 30.04 in 10.0 mi South 8.1 mph - N/A   Clear
12:55 PM 39.6 °F 34.7 °F 31.8 °F 74% 30.02 in 10.0 mi SSE 6.9 mph - N/A   Clear
1:15 PM 40.1 °F 38.0 °F 32.0 °F 73% 30.02 in 10.0 mi South 3.5 mph - N/A   Scattered Clouds
1:35 PM 40.8 °F 36.2 °F 32.4 °F 72% 30.01 in 10.0 mi SSE 6.9 mph - N/A   Scattered Clouds
1:55 PM 41.0 °F 36.4 °F 32.2 °F 71% 29.99 in 10.0 mi South 6.9 mph - N/A   Scattered Clouds
2:15 PM 41.0 °F 36.4 °F 32.2 °F 71% 29.99 in 10.0 mi South 6.9 mph - N/A   Clear
2:35 PM 41.0 °F 37.1 °F 32.7 °F 72% 29.99 in 10.0 mi South 5.8 mph - N/A   Clear
2:55 PM 41.0 °F 37.1 °F 32.2 °F 71% 29.99 in 10.0 mi South 5.8 mph - N/A   Scattered Clouds
3:15 PM 41.0 °F 36.4 °F 32.7 °F 72% 29.98 in 10.0 mi South 6.9 mph - N/A   Scattered Clouds
3:35 PM 40.5 °F 36.5 °F 32.9 °F 74% 29.98 in 10.0 mi SSE 5.8 mph - N/A   Scattered Clouds
3:55 PM 40.1 °F 36.1 °F 32.9 °F 75% 29.98 in 10.0 mi SSE 5.8 mph - N/A   Scattered Clouds
4:15 PM 39.7 °F 36.5 °F 32.9 °F 77% 29.98 in 10.0 mi South 4.6 mph - N/A   Clear
4:35 PM 39.4 °F - 33.3 °F 79% 29.98 in 10.0 mi Calm Calm - N/A   Clear
4:55 PM 39.2 °F 37.0 °F 33.6 °F 80% 29.99 in 10.0 mi South 3.5 mph - N/A   Clear
5:15 PM 39.6 °F 36.3 °F 34.2 °F 81% 29.99 in 10.0 mi South 4.6 mph - N/A   Mostly Cloudy
5:35 PM 39.6 °F 37.4 °F 34.7 °F 83% 29.99 in 10.0 mi South 3.5 mph - N/A   Mostly Cloudy
5:55 PM 39.6 °F 37.4 °F 34.7 °F 83% 29.97 in 10.0 mi SSE 3.5 mph - N/A   Overcast
6:15 PM 38.7 °F 36.3 °F 34.7 °F 86% 29.96 in 10.0 mi SSE 3.5 mph - N/A   Overcast
6:35 PM 38.8 °F - 34.9 °F 86% 29.96 in 10.0 mi Calm Calm - N/A   Overcast
6:55 PM 39.4 °F 35.2 °F 34.9 °F 84% 29.96 in 10.0 mi SSE 5.8 mph - N/A   Overcast
7:15 PM 39.6 °F 36.3 °F 35.1 °F 84% 29.97 in 10.0 mi South 4.6 mph - N/A   Overcast
7:35 PM 39.6 °F 36.3 °F 34.9 °F 83% 29.96 in 10.0 mi SSE 4.6 mph - N/A   Overcast
7:55 PM 39.4 °F 35.2 °F 35.1 °F 84% 29.96 in 10.0 mi SSE 5.8 mph - N/A   Overcast
8:35 PM 39.6 °F 35.4 °F 35.2 °F 85% 29.95 in 10.0 mi SSE 5.8 mph - N/A   Overcast
8:55 PM 39.7 °F 34.9 °F 35.6 °F 85% 29.93 in 10.0 mi South 6.9 mph - N/A   Light Drizzle
9:15 PM 40.1 °F 36.1 °F 35.8 °F 85% 29.94 in 10.0 mi South 5.8 mph - N/A   Overcast
9:35 PM 40.1 °F 36.9 °F 36.0 °F 85% 29.94 in 10.0 mi South 4.6 mph - N/A   Overcast
9:55 PM 40.3 °F 37.1 °F 36.0 °F 85% 29.94 in 10.0 mi SSW 4.6 mph - N/A   Mostly Cloudy
10:15 PM 40.1 °F - 35.8 °F 85% 29.95 in 10.0 mi Calm Calm - N/A   Mostly Cloudy
10:35 PM 39.6 °F 37.4 °F 36.1 °F 88% 29.95 in 10.0 mi South 3.5 mph - N/A   Mostly Cloudy
10:55 PM 39.6 °F 37.4 °F 36.5 °F 89% 29.94 in 10.0 mi South 3.5 mph - N/A   Overcast
11:15 PM 40.5 °F - 36.5 °F 86% 29.94 in 10.0 mi Calm Calm - N/A   Overcast
11:35 PM 40.5 °F - 36.5 °F 86% 29.95 in 10.0 mi Calm Calm - N/A   Overcast
11:55 PM 40.1 °F - 36.7 °F 88% 29.95 in 10.0 mi Calm Calm - N/A   Overcast